Time,TemperatureF,DewpointF,PressureIn,WindDirection,WindDirectionDegrees,WindSpeedMPH,WindSpeedGustMPH,Humidity,HourlyPrecipIn,Conditions,Clouds,dailyrainin,SoftwareType,DateUTC
2013-07-07 00:00:00,69.6,61.4,30.20,North,1,0.0,0.0,75,0.00,CLR,SKC,0.00,WeatherDisplay:10.37,2013-07-06 22:00:00,
2013-07-07 00:10:00,69.6,61.4,30.20,North,1,0.0,0.0,75,0.00,CLR,SKC,0.00,WeatherDisplay:10.37,2013-07-06 22:10:00,
2013-07-07 00:20:00,69.6,61.3,30.20,North,1,0.0,0.0,75,0.00,CLR,SKC,0.00,WeatherDisplay:10.37,2013-07-06 22:20:00,
2013-07-07 00:30:00,69.6,61.3,30.20,North,1,0.0,0.0,75,0.00,CLR,SKC,0.00,WeatherDisplay:10.37,2013-07-06 22:30:00,
2013-07-07 00:40:00,69.6,61.3,30.20,North,1,0.0,0.0,75,0.00,CLR,SKC,0.00,WeatherDisplay:10.37,2013-07-06 22:40:00,
2013-07-07 00:50:00,69.4,61.2,30.20,North,1,0.0,0.0,75,0.00,CLR,SKC,0.00,WeatherDisplay:10.37,2013-07-06 22:50:00,
2013-07-07 01:00:00,69.2,60.9,30.21,North,1,0.0,0.0,75,0.00,CLR,SKC,0.00,WeatherDisplay:10.37,2013-07-06 23:00:00,
2013-07-07 01:10:00,68.9,60.6,30.20,North,1,0.0,0.0,75,0.00,CLR,SKC,0.00,WeatherDisplay:10.37,2013-07-06 23:10:00,
2013-07-07 01:20:00,68.7,60.5,30.21,North,1,0.0,0.0,75,0.00,CLR,SKC,0.00,WeatherDisplay:10.37,2013-07-06 23:20:00,
2013-07-07 01:40:00,68.4,60.1,30.21,North,1,0.0,0.0,75,0.00,CLR,SKC,0.00,WeatherDisplay:10.37,2013-07-06 23:40:00,
2013-07-07 01:50:00,68.4,60.1,30.21,North,1,0.0,0.0,75,0.00,CLR,SKC,0.00,WeatherDisplay:10.37,2013-07-06 23:50:00,
2013-07-07 02:00:00,68.2,60.0,30.20,North,1,0.0,0.0,75,0.00,CLR,SKC,0.00,WeatherDisplay:10.37,2013-07-07 00:00:00,
2013-07-07 02:10:00,68.2,60.0,30.20,North,1,0.0,0.0,75,0.00,CLR,SKC,0.00,WeatherDisplay:10.37,2013-07-07 00:10:00,
2013-07-07 02:20:00,68.2,60.0,30.20,North,1,0.0,0.0,75,0.00,CLR,SKC,0.00,WeatherDisplay:10.37,2013-07-07 00:20:00,
2013-07-07 02:40:00,68.2,59.6,30.20,North,1,0.0,0.0,74,0.00,CLR,SKC,0.00,WeatherDisplay:10.37,2013-07-07 00:40:00,
2013-07-07 02:50:00,68.2,59.6,30.20,North,1,0.0,0.0,74,0.00,CLR,SKC,0.00,WeatherDisplay:10.37,2013-07-07 00:50:00,
2013-07-07 03:10:00,68.1,59.5,30.19,North,1,0.0,0.0,74,0.00,CLR,SKC,0.00,WeatherDisplay:10.37,2013-07-07 01:10:00,
2013-07-07 03:30:00,67.8,59.6,30.19,North,1,0.0,0.0,75,0.00,CLR,SKC,0.00,WeatherDisplay:10.37,2013-07-07 01:30:00,
2013-07-07 03:50:00,67.6,59.4,30.19,North,1,0.0,0.0,75,0.00,CLR,SKC,0.00,WeatherDisplay:10.37,2013-07-07 01:50:00,
2013-07-07 04:20:00,67.6,59.8,30.19,North,1,0.0,0.0,76,0.00,CLR,SKC,0.00,WeatherDisplay:10.37,2013-07-07 02:20:00,
2013-07-07 04:30:00,67.3,59.1,30.19,North,1,0.0,0.0,75,0.00,CLR,SKC,0.00,WeatherDisplay:10.37,2013-07-07 02:30:00,
2013-07-07 04:50:00,66.7,59.3,30.19,North,1,0.0,0.0,77,0.00,CLR,SKC,0.00,WeatherDisplay:10.37,2013-07-07 02:50:00,
2013-07-07 05:00:00,66.4,58.9,30.19,North,1,0.0,0.0,77,0.00,CLR,SKC,0.00,WeatherDisplay:10.37,2013-07-07 03:00:00,
2013-07-07 05:30:00,66.4,59.3,30.19,North,1,0.0,0.0,78,0.00,CLR,SKC,0.00,WeatherDisplay:10.37,2013-07-07 03:30:00,
2013-07-07 05:40:00,66.6,59.5,30.20,North,1,0.0,0.0,78,0.00,CLR,SKC,0.00,WeatherDisplay:10.37,2013-07-07 03:40:00,
2013-07-07 05:50:00,66.7,59.7,30.20,North,1,0.0,0.0,78,0.00,CLR,SKC,0.00,WeatherDisplay:10.37,2013-07-07 03:50:00,
2013-07-07 06:00:00,66.9,59.8,30.20,North,1,0.0,0.0,78,0.00,CLR,SKC,0.00,WeatherDisplay:10.37,2013-07-07 04:00:00,
2013-07-07 06:10:00,67.5,60.0,30.20,North,1,0.0,0.0,77,0.00,CLR,SKC,0.00,WeatherDisplay:10.37,2013-07-07 04:10:00,
2013-07-07 06:20:00,68.2,60.3,30.20,North,1,0.0,0.0,76,0.00,CLR,SKC,0.00,WeatherDisplay:10.37,2013-07-07 04:20:00,
2013-07-07 06:30:00,69.1,60.4,30.20,North,1,0.0,0.0,74,0.00,CLR,SKC,0.00,WeatherDisplay:10.37,2013-07-07 04:30:00,
2013-07-07 06:40:00,69.7,61.0,30.20,North,1,0.0,0.0,74,0.00,CLR,SKC,0.00,WeatherDisplay:10.37,2013-07-07 04:40:00,
2013-07-07 06:50:00,70.5,61.4,30.20,North,1,0.0,0.0,73,0.00,CLR,SKC,0.00,WeatherDisplay:10.37,2013-07-07 04:50:00,
2013-07-07 07:00:00,71.2,61.4,30.20,North,1,0.0,0.0,71,0.00,CLR,SKC,0.00,WeatherDisplay:10.37,2013-07-07 05:00:00,
2013-07-07 07:10:00,72.0,61.7,30.20,North,1,0.0,0.0,70,0.00,CLR,SKC,0.00,WeatherDisplay:10.37,2013-07-07 05:10:00,
2013-07-07 07:20:00,72.3,61.6,30.21,North,1,0.0,0.0,69,0.00,CLR,SKC,0.00,WeatherDisplay:10.37,2013-07-07 05:20:00,
2013-07-07 07:30:00,72.9,61.7,30.20,North,1,0.0,0.0,68,0.00,CLR,SKC,0.00,WeatherDisplay:10.37,2013-07-07 05:30:00,
2013-07-07 07:40:00,73.2,62.0,30.20,North,1,0.0,0.0,68,0.00,CLR,SKC,0.00,WeatherDisplay:10.37,2013-07-07 05:40:00,
2013-07-07 07:50:00,73.6,61.9,30.20,North,1,0.0,0.0,67,0.00,CLR,SKC,0.00,WeatherDisplay:10.37,2013-07-07 05:50:00,
2013-07-07 08:00:00,73.9,62.3,30.20,North,1,0.0,0.0,67,0.00,CLR,SKC,0.00,WeatherDisplay:10.37,2013-07-07 06:00:00,
2013-07-07 08:10:00,74.7,62.5,30.21,North,1,0.0,0.0,66,0.00,CLR,SKC,0.00,WeatherDisplay:10.37,2013-07-07 06:10:00,
2013-07-07 08:20:00,75.1,62.5,30.22,North,1,0.0,0.0,65,0.00,CLR,SKC,0.00,WeatherDisplay:10.37,2013-07-07 06:20:00,
2013-07-07 08:30:00,75.4,62.8,30.21,North,1,0.0,0.0,65,0.00,CLR,SKC,0.00,WeatherDisplay:10.37,2013-07-07 06:30:00,
2013-07-07 08:40:00,75.8,63.2,30.22,North,1,0.0,0.0,65,0.00,CLR,SKC,0.00,WeatherDisplay:10.37,2013-07-07 06:40:00,
2013-07-07 08:50:00,76.3,62.8,30.22,North,1,0.0,0.0,63,0.00,CLR,SKC,0.00,WeatherDisplay:10.37,2013-07-07 06:50:00,
2013-07-07 09:00:00,76.6,63.1,30.22,North,1,0.0,0.0,63,0.00,CLR,SKC,0.00,WeatherDisplay:10.37,2013-07-07 07:00:00,
2013-07-07 09:10:00,77.4,62.9,30.22,North,1,0.0,0.0,61,0.00,CLR,SKC,0.00,WeatherDisplay:10.37,2013-07-07 07:10:00,
2013-07-07 09:20:00,77.9,63.4,30.21,North,1,0.0,0.0,61,0.00,CLR,SKC,0.00,WeatherDisplay:10.37,2013-07-07 07:20:00,
2013-07-07 09:30:00,78.4,62.9,30.22,North,1,0.0,0.0,59,0.00,CLR,SKC,0.00,WeatherDisplay:10.37,2013-07-07 07:30:00,
2013-07-07 09:40:00,78.8,63.2,30.22,North,1,0.0,0.0,59,0.00,CLR,SKC,0.00,WeatherDisplay:10.37,2013-07-07 07:40:00,
2013-07-07 09:50:00,79.7,64.6,30.22,North,1,0.0,0.0,60,0.00,CLR,SKC,0.00,WeatherDisplay:10.37,2013-07-07 07:50:00,
2013-07-07 10:00:00,80.2,64.1,30.21,North,1,0.0,0.0,58,0.00,CLR,SKC,0.00,WeatherDisplay:10.37,2013-07-07 08:00:00,
2013-07-07 10:10:00,80.8,63.6,30.22,North,1,0.0,0.0,56,0.00,CLR,SKC,0.00,WeatherDisplay:10.37,2013-07-07 08:10:00,
2013-07-07 10:20:00,81.2,64.0,30.22,North,1,0.0,0.0,56,0.00,CLR,SKC,0.00,WeatherDisplay:10.37,2013-07-07 08:20:00,
2013-07-07 10:30:00,81.5,64.3,30.22,North,1,0.0,0.0,56,0.00,CLR,SKC,0.00,WeatherDisplay:10.37,2013-07-07 08:30:00,
2013-07-07 10:40:00,81.7,63.4,30.23,North,1,0.0,0.0,54,0.00,CLR,SKC,0.00,WeatherDisplay:10.37,2013-07-07 08:40:00,
2013-07-07 10:50:00,82.0,63.8,30.22,North,1,0.0,0.0,54,0.00,CLR,SKC,0.00,WeatherDisplay:10.37,2013-07-07 08:50:00,
2013-07-07 11:00:00,82.7,63.9,30.23,North,1,0.0,0.0,53,0.00,CLR,SKC,0.00,WeatherDisplay:10.37,2013-07-07 09:00:00,
2013-07-07 11:10:00,82.9,64.0,30.22,North,1,0.0,0.0,53,0.00,CLR,SKC,0.00,WeatherDisplay:10.37,2013-07-07 09:10:00,
2013-07-07 11:20:00,82.8,63.3,30.22,North,1,0.0,0.0,52,0.00,CLR,SKC,0.00,WeatherDisplay:10.37,2013-07-07 09:20:00,
2013-07-07 11:30:00,83.3,63.8,30.23,North,1,0.0,0.0,52,0.00,CLR,SKC,0.00,WeatherDisplay:10.37,2013-07-07 09:30:00,
2013-07-07 11:40:00,83.5,63.4,30.22,North,1,0.0,0.0,51,0.00,CLR,SKC,0.00,WeatherDisplay:10.37,2013-07-07 09:40:00,
2013-07-07 11:50:00,82.9,63.5,30.23,North,1,0.0,0.0,52,0.00,CLR,SKC,0.00,WeatherDisplay:10.37,2013-07-07 09:50:00,
2013-07-07 12:00:00,83.5,64.0,30.23,North,1,0.0,0.0,52,0.00,CLR,SKC,0.00,WeatherDisplay:10.37,2013-07-07 10:00:00,
2013-07-07 12:10:00,83.8,63.8,30.23,North,1,0.0,0.0,51,0.00,CLR,SKC,0.00,WeatherDisplay:10.37,2013-07-07 10:10:00,
2013-07-07 12:20:00,84.0,63.9,30.23,North,1,0.0,0.0,51,0.00,CLR,SKC,0.00,WeatherDisplay:10.37,2013-07-07 10:20:00,
2013-07-07 12:30:00,84.7,64.6,30.23,North,1,0.0,0.0,51,0.00,CLR,SKC,0.00,WeatherDisplay:10.37,2013-07-07 10:30:00,
2013-07-07 12:40:00,84.4,63.2,30.23,North,1,0.0,0.0,49,0.00,CLR,SKC,0.00,WeatherDisplay:10.37,2013-07-07 10:40:00,
2013-07-07 12:50:00,84.8,63.5,30.22,North,1,0.0,0.0,49,0.00,CLR,SKC,0.00,WeatherDisplay:10.37,2013-07-07 10:50:00,
2013-07-07 13:00:00,84.8,63.5,30.22,North,1,0.0,0.0,49,0.00,CLR,SKC,0.00,WeatherDisplay:10.37,2013-07-07 11:00:00,
2013-07-07 13:10:00,84.9,63.6,30.23,North,1,0.0,0.0,49,0.00,CLR,SKC,0.00,WeatherDisplay:10.37,2013-07-07 11:10:00,
2013-07-07 13:20:00,85.6,63.7,30.22,North,1,0.0,0.0,48,0.00,CLR,SKC,0.00,WeatherDisplay:10.37,2013-07-07 11:20:00,
2013-07-07 13:30:00,85.1,62.6,30.22,North,1,0.0,0.0,47,0.00,CLR,SKC,0.00,WeatherDisplay:10.37,2013-07-07 11:30:00,
2013-07-07 13:40:00,85.5,63.0,30.22,North,1,0.0,0.0,47,0.00,CLR,SKC,0.00,WeatherDisplay:10.37,2013-07-07 11:40:00,
2013-07-07 13:50:00,85.8,62.6,30.21,North,1,0.0,0.0,46,0.00,CLR,SKC,0.00,WeatherDisplay:10.37,2013-07-07 11:50:00,
2013-07-07 14:00:00,85.8,62.6,30.21,North,1,0.0,0.0,46,0.00,CLR,SKC,0.00,WeatherDisplay:10.37,2013-07-07 12:00:00,
2013-07-07 14:10:00,85.8,63.2,30.21,North,1,0.0,0.0,47,0.00,CLR,SKC,0.00,WeatherDisplay:10.37,2013-07-07 12:10:00,
2013-07-07 14:20:00,85.9,62.1,30.21,North,1,0.0,0.0,45,0.00,CLR,SKC,0.00,WeatherDisplay:10.37,2013-07-07 12:20:00,
2013-07-07 14:30:00,85.8,62.0,30.21,North,1,0.0,0.0,45,0.00,CLR,SKC,0.00,WeatherDisplay:10.37,2013-07-07 12:30:00,
2013-07-07 14:40:00,86.2,62.3,30.21,North,1,0.0,0.0,45,0.00,CLR,SKC,0.00,WeatherDisplay:10.37,2013-07-07 12:40:00,
2013-07-07 14:50:00,86.5,62.6,30.20,North,1,0.0,0.0,45,0.00,CLR,SKC,0.00,WeatherDisplay:10.37,2013-07-07 12:50:00,
2013-07-07 15:00:00,86.2,63.0,30.20,North,1,0.0,0.0,46,0.00,CLR,SKC,0.00,WeatherDisplay:10.37,2013-07-07 13:00:00,
2013-07-07 15:10:00,86.4,62.5,30.20,North,1,0.0,0.0,45,0.00,CLR,SKC,0.00,WeatherDisplay:10.37,2013-07-07 13:10:00,
2013-07-07 15:20:00,86.4,61.9,30.20,North,1,0.0,0.0,44,0.00,CLR,SKC,0.00,WeatherDisplay:10.37,2013-07-07 13:20:00,
2013-07-07 15:30:00,86.2,62.3,30.20,North,1,0.0,0.0,45,0.00,CLR,SKC,0.00,WeatherDisplay:10.37,2013-07-07 13:30:00,
2013-07-07 15:40:00,86.4,62.5,30.20,North,1,0.0,0.0,45,0.00,CLR,SKC,0.00,WeatherDisplay:10.37,2013-07-07 13:40:00,
2013-07-07 15:50:00,86.5,62.0,30.19,North,1,0.0,0.0,44,0.00,CLR,SKC,0.00,WeatherDisplay:10.37,2013-07-07 13:50:00,
2013-07-07 16:00:00,86.4,63.1,30.19,North,1,0.0,0.0,46,0.00,CLR,SKC,0.00,WeatherDisplay:10.37,2013-07-07 14:00:00,
2013-07-07 16:10:00,86.6,62.7,30.19,North,1,0.0,0.0,45,0.00,CLR,SKC,0.00,WeatherDisplay:10.37,2013-07-07 14:10:00,
2013-07-07 16:20:00,85.8,62.0,30.19,North,1,0.0,0.0,45,0.00,CLR,SKC,0.00,WeatherDisplay:10.37,2013-07-07 14:20:00,
2013-07-07 16:30:00,85.1,62.0,30.18,North,1,0.0,0.0,46,0.00,CLR,SKC,0.00,WeatherDisplay:10.37,2013-07-07 14:30:00,
2013-07-07 16:40:00,85.8,62.0,30.18,North,1,0.0,0.0,45,0.00,CLR,SKC,0.00,WeatherDisplay:10.37,2013-07-07 14:40:00,
2013-07-07 16:50:00,86.3,62.4,30.18,North,1,0.0,0.0,45,0.00,CLR,SKC,0.00,WeatherDisplay:10.37,2013-07-07 14:50:00,
2013-07-07 17:00:00,85.4,61.7,30.17,North,1,0.0,0.0,45,0.00,CLR,SKC,0.00,WeatherDisplay:10.37,2013-07-07 15:00:00,
2013-07-07 17:10:00,85.3,62.2,30.18,North,1,0.0,0.0,46,0.00,CLR,SKC,0.00,WeatherDisplay:10.37,2013-07-07 15:10:00,
2013-07-07 17:20:00,84.6,62.7,30.18,North,1,0.0,0.0,48,0.00,CLR,SKC,0.00,WeatherDisplay:10.37,2013-07-07 15:20:00,
2013-07-07 17:30:00,84.6,62.7,30.18,North,1,0.0,0.0,48,0.00,CLR,SKC,0.00,WeatherDisplay:10.37,2013-07-07 15:30:00,
2013-07-07 17:40:00,84.0,61.6,30.18,North,1,0.0,0.0,47,0.00,CLR,SKC,0.00,WeatherDisplay:10.37,2013-07-07 15:40:00,
2013-07-07 17:50:00,84.0,61.6,30.18,North,1,0.0,0.0,47,0.00,CLR,SKC,0.00,WeatherDisplay:10.37,2013-07-07 15:50:00,
2013-07-07 18:00:00,83.0,61.9,30.18,North,1,0.0,0.0,49,0.00,CLR,SKC,0.00,WeatherDisplay:10.37,2013-07-07 16:00:00,
2013-07-07 18:10:00,83.1,62.0,30.18,North,1,0.0,0.0,49,0.00,CLR,SKC,0.00,WeatherDisplay:10.37,2013-07-07 16:10:00,
2013-07-07 18:20:00,83.4,62.2,30.17,North,1,0.0,0.0,49,0.00,CLR,SKC,0.00,WeatherDisplay:10.37,2013-07-07 16:20:00,
2013-07-07 18:30:00,83.1,62.0,30.17,North,1,0.0,0.0,49,0.00,CLR,SKC,0.00,WeatherDisplay:10.37,2013-07-07 16:30:00,
2013-07-07 18:40:00,82.4,61.3,30.17,North,1,0.0,0.0,49,0.00,CLR,SKC,0.00,WeatherDisplay:10.37,2013-07-07 16:40:00,
2013-07-07 18:50:00,82.2,61.2,30.19,North,1,0.0,0.0,49,0.00,CLR,SKC,0.00,WeatherDisplay:10.37,2013-07-07 16:50:00,
2013-07-07 19:00:00,82.0,61.0,30.19,North,1,0.0,0.0,49,0.00,CLR,SKC,0.00,WeatherDisplay:10.37,2013-07-07 17:00:00,
2013-07-07 19:10:00,81.7,60.7,30.18,North,1,0.0,0.0,49,0.00,CLR,SKC,0.00,WeatherDisplay:10.37,2013-07-07 17:10:00,
2013-07-07 19:20:00,81.2,60.2,30.19,North,1,0.0,0.0,49,0.00,CLR,SKC,0.00,WeatherDisplay:10.37,2013-07-07 17:20:00,
2013-07-07 19:30:00,80.8,60.4,30.19,North,1,0.0,0.0,50,0.00,CLR,SKC,0.00,WeatherDisplay:10.37,2013-07-07 17:30:00,
2013-07-07 19:40:00,80.2,59.3,30.19,North,1,0.0,0.0,49,0.00,CLR,SKC,0.00,WeatherDisplay:10.37,2013-07-07 17:40:00,
2013-07-07 19:50:00,79.6,59.3,30.19,North,1,0.0,0.0,50,0.00,CLR,SKC,0.00,WeatherDisplay:10.37,2013-07-07 17:50:00,
2013-07-07 20:00:00,78.8,59.1,30.19,North,1,0.0,0.0,51,0.00,CLR,SKC,0.00,WeatherDisplay:10.37,2013-07-07 18:00:00,
2013-07-07 20:10:00,78.1,59.0,30.19,North,1,0.0,0.0,52,0.00,CLR,SKC,0.00,WeatherDisplay:10.37,2013-07-07 18:10:00,
2013-07-07 20:20:00,77.8,58.7,30.19,North,1,0.0,0.0,52,0.00,CLR,SKC,0.00,WeatherDisplay:10.37,2013-07-07 18:20:00,
2013-07-07 20:30:00,77.0,58.5,30.20,North,1,0.0,0.0,53,0.00,CLR,SKC,0.00,WeatherDisplay:10.37,2013-07-07 18:30:00,
2013-07-07 20:40:00,76.3,59.0,30.20,North,1,0.0,0.0,55,0.00,CLR,SKC,0.00,WeatherDisplay:10.37,2013-07-07 18:40:00,
2013-07-07 20:50:00,75.7,58.9,30.21,North,1,0.0,0.0,56,0.00,CLR,SKC,0.00,WeatherDisplay:10.37,2013-07-07 18:50:00,
2013-07-07 21:00:00,75.0,58.3,30.22,North,1,0.0,0.0,56,0.00,CLR,SKC,0.00,WeatherDisplay:10.37,2013-07-07 19:00:00,
2013-07-07 21:10:00,74.5,58.7,30.22,North,1,0.0,0.0,58,0.00,CLR,SKC,0.00,WeatherDisplay:10.37,2013-07-07 19:10:00,
2013-07-07 21:20:00,74.3,58.6,30.22,North,1,0.0,0.0,58,0.00,CLR,SKC,0.00,WeatherDisplay:10.37,2013-07-07 19:20:00,
2013-07-07 21:30:00,74.3,59.0,30.22,North,1,0.0,0.0,59,0.00,CLR,SKC,0.00,WeatherDisplay:10.37,2013-07-07 19:30:00,
2013-07-07 21:40:00,73.9,58.7,30.23,North,1,0.0,0.0,59,0.00,CLR,SKC,0.00,WeatherDisplay:10.37,2013-07-07 19:40:00,
2013-07-07 21:50:00,73.6,58.8,30.23,North,1,0.0,0.0,60,0.00,CLR,SKC,0.00,WeatherDisplay:10.37,2013-07-07 19:50:00,
2013-07-07 22:00:00,73.2,59.0,30.23,North,1,0.0,0.0,61,0.00,CLR,SKC,0.00,WeatherDisplay:10.37,2013-07-07 20:00:00,
2013-07-07 22:10:00,72.7,58.9,30.23,North,1,0.0,0.0,62,0.00,CLR,SKC,0.00,WeatherDisplay:10.37,2013-07-07 20:10:00,
2013-07-07 22:20:00,72.3,59.0,30.23,North,1,0.0,0.0,63,0.00,CLR,SKC,0.00,WeatherDisplay:10.37,2013-07-07 20:20:00,
2013-07-07 22:30:00,72.5,58.7,30.23,North,1,0.0,0.0,62,0.00,CLR,SKC,0.00,WeatherDisplay:10.37,2013-07-07 20:30:00,
2013-07-07 22:40:00,72.5,58.7,30.23,North,1,0.0,0.0,62,0.00,CLR,SKC,0.00,WeatherDisplay:10.37,2013-07-07 20:40:00,
2013-07-07 22:50:00,72.3,58.6,30.23,North,1,0.0,0.0,62,0.00,CLR,SKC,0.00,WeatherDisplay:10.37,2013-07-07 20:50:00,
2013-07-07 23:00:00,72.0,58.3,30.23,North,1,0.0,0.0,62,0.00,CLR,SKC,0.00,WeatherDisplay:10.37,2013-07-07 21:00:00,
2013-07-07 23:10:00,71.8,58.1,30.23,North,1,0.0,0.0,62,0.00,CLR,SKC,0.00,WeatherDisplay:10.37,2013-07-07 21:10:00,
2013-07-07 23:20:00,71.4,57.7,30.24,North,1,0.0,0.0,62,0.00,CLR,SKC,0.00,WeatherDisplay:10.37,2013-07-07 21:20:00,
2013-07-07 23:30:00,71.3,57.6,30.24,North,1,0.0,0.0,62,0.00,CLR,SKC,0.00,WeatherDisplay:10.37,2013-07-07 21:30:00,
2013-07-07 23:40:00,70.9,57.2,30.24,North,1,0.0,0.0,62,0.00,CLR,SKC,0.00,WeatherDisplay:10.37,2013-07-07 21:40:00,
2013-07-07 23:50:00,70.5,57.3,30.24,North,1,0.0,0.0,63,0.00,CLR,SKC,0.00,WeatherDisplay:10.37,2013-07-07 21:50:00,